CAPE
2 2 2 3 3 3 3 3 3 3 2 0 0 0 0 0 0 0 0 0 0 0 0 0 0 0 0 0 0 0 0 0 0 0 0 0 0 0 0 0 0 0 0 178 557
1 2 2 2 1 1 0 0 1 2 3 4 5 6 3 1 0 0 0 0 0 0 0 0 0 0 0 0 0 0 0 0 0 0 0 0 0 0 0 0 0 0 0 53 414
5 1 1 2 2 1 0 0 0 1 1 4 7 8 4 2 0 0 0 0 0 0 0 0 0 0 0 0 0 0 0 0 0 0 0 0 0 0 0 0 0 0 0 0 44
4 2 1 1 1 0 1 1 1 1 2 4 6 5 12 2 0 0 0 0 0 0 0 0 0 0 0 0 0 0 0 0 0 0 0 0 0 0 0 0 0 0 0 0 0
1 1 0 0 0 0 0 0 1 2 4 3 6 14 14 0 0 0 0 0 0 0 0 0 0 0 0 0 0 0 0 0 0 0 0 0 0 0 0 0 0 0 0 0 0
2 2 2 1 1 0 0 0 0 0 5 2 7 18 12 0 0 0 0 0 0 0 0 0 0 0 0 0 0 0 0 0 0 0 0 0 0 0 0 0 0 0 0 0 0
1 0 1 1 1 0 0 0 0 0 0 3 8 17 10 0 0 0 0 0 0 0 0 0 0 0 0 0 0 0 0 0 0 0 0 0 0 0 0 0 0 0 0 0 0
1 0 0 2 0 0 0 0 0 0 0 0 4 3 2 0 0 0 0 0 0 0 0 0 0 0 0 0 0 0 0 0 0 0 0 0 0 0 0 0 0 0 0 0 0
0 0 0 0 0 1 2 0 0 0 0 0 0 0 0 0 0 0 0 0 0 0 0 0 0 0 0 0 0 0 0 0 0 0 0 0 0 0 0 0 0 0 0 0 0
2 0 0 0 0 0 0 0 0 0 0 0 22 10 0 0 0 0 3 7 0 0 0 0 2 6 8 5 0 0 0 0 0 0 0 0 0 0 0 0 0 0 0 0 0
1 0 0 1 0 0 0 0 0 0 0 3 0 0 0 0 0 21 11 8 31 1 0 0 0 18 1 0 0 0 0 0 0 0 0 0 0 0 0 0 0 0 0 0 0
0 0 1 0 0 0 0 3 0 8 0 0 0 0 5 51 22 12 44 1 4 8 43 67 0 0 0 0 2 0 0 0 0 0 0 0 0 0 0 0 0 0 0 0 0
0 0 0 0 0 0 0 0 0 1 3 0 4 43 0 0 0 0 0 0 4 15 40 39 36 0 0 0 0 3 0 0 0 0 0 0 0 0 0 0 0 0 0 0 0
0 0 0 0 0 0 0 0 6 0 0 1 0 24 25 0 1 10 0 0 1 16 13 62 0 14 0 0 0 0 0 0 0 0 1 2 0 1 0 0 0 0 0 0 0
0 0 0 0 0 0 0 0 4 0 0 2 1 26 0 0 25 15 0 10 0 0 2 8 64 24 6 7 0 0 0 0 0 0 0 5 0 0 0 0 0 0 0 0 0
0 0 0 0 0 0 0 0 1 4 5 2 0 0 2 15 12 14 5 21 62 0 0 0 0 28 43 22 13 0 0 1 4 2 5 1 0 0 0 0 0 0 0 0 0
0 0 0 0 0 0 0 31 42 7 2 0 0 0 1 8 12 19 23 40 2 21 0 0 0 0 0 44 6 22 0 0 0 24 1 0 0 0 0 0 0 0 0 0 0
0 0 0 0 0 0 0 3 0 0 1 0 0 1 4 5 0 14 1 0 63 28 34 0 9 14 16 1 7 17 16 5 0 7 0 0 0 0 0 0 0 0 0 0 0
0 0 0 0 0 0 5 0 4 6 0 0 0 3 1 12 2 3 0 0 7 4 1 55 20 10 8 45 0 0 11 16 24 13 0 0 0 0 0 2 9 0 0 0 0
0 0 0 0 0 0 4 0 6 5 1 2 4 11 8 8 5 9 0 11 3 10 0 3 2 18 16 0 31 29 40 72 53 17 11 1 0 0 0 0 0 63 2 0 0
0 0 0 0 0 0 6 3 0 5 7 4 4 6 11 13 9 20 10 8 2 1 2 6 6 3 0 0 83 66 17 67 27 1 4 4 0 0 0 0 152 224 231 661 510
0 0 0 0 0 0 0 0 1 5 6 3 4 6 13 14 7 4 6 5 3 4 2 4 0 0 0 0 82 100 0 41 16 0 20 43 86 601 82 278 214 51 208 657 930
0 0 0 0 0 0 0 0 1 0 3 0 0 2 5 11 0 0 1 2 1 1 0 0 0 0 2 0 12 68 12 0 25 13 24 19 236 231 363 136 3 17 207 401 564
0 0 0 0 0 0 2 0 3 3 8 4 7 5 10 3 2 0 2 0 1 1 8 3 1 0 2 0 77 43 5 2 1 0 2 3 185 47 21 2 4 8 125 243 359
0 0 0 0 0 0 1 5 0 2 8 10 8 5 10 0 0 3 0 1 1 1 1 1 0 0 0 0 5 26 3 15 3 0 29 48 110 8 2 3 4 9 32 20 6
0 0 3 0 0 1 3 0 5 0 5 7 14 14 14 12 3 2 5 1 0 1 0 0 0 3 0 0 54 6 0 12 71 0 1 178 96 3 3 3 2 4 0 0 0
3 10 15 0 0 0 0 1 3 5 0 2 5 2 6 13 6 4 3 1 1 1 0 0 1 2 31 100 91 8 2 8 12 1 1 1 3 2 3 2 3 2 1 0 0
CIN
-0 -0 -0 -0 -0 -0 -0 -0 -0 -0 -0 -0 -0 -0 -0 -0 -0 -0 -0 -0 -0 -0 -0 -0 -0 -0 -0 -0 -0 -0 -0 -0 -0 -0 -0 -0 -0 -0 -0 -0 -0 -0 -0 -7 -21
-0 -0 -0 -0 -0 -0 -0 -0 -0 -0 -0 -0 -0 -0 -0 -0 -0 -0 -0 -0 -0 -0 -0 -0 -0 -0 -0 -0 -0 -0 -0 -0 -0 -0 -0 -0 -0 -0 -0 -0 -0 -0 -0 -6 -32
-0 -0 -0 -0 -0 -0 -0 -0 -0 -0 -0 -0 -0 -0 -1 -1 -0 -0 -0 -0 -0 -0 -0 -0 -0 -0 -0 -0 -0 -0 -0 -0 -0 -0 -0 -0 -0 -0 -0 -0 -0 -0 -0 -0 -21
-0 -0 -0 -0 -0 -0 -0 -0 -0 -0 -0 -0 -0 -0 -1 -1 -0 -0 -0 -0 -0 -0 -0 -0 -0 -0 -0 -0 -0 -0 -0 -0 -0 -0 -0 -0 -0 -0 -0 -0 -0 -0 -0 -0 -0
-0 -0 -0 -0 -0 -0 -0 -0 -0 -0 -0 -0 -0 -0 -0 -0 -0 -0 -0 -0 -0 -0 -0 -0 -0 -0 -0 -0 -0 -0 -0 -0 -0 -0 -0 -0 -0 -0 -0 -0 -0 -0 -0 -0 -0
-0 -0 -0 -0 -0 -0 -0 -0 -0 -0 -0 -0 -0 -0 -0 -0 -0 -0 -0 -0 -0 -0 -0 -0 -0 -0 -0 -0 -0 -0 -0 -0 -0 -0 -0 -0 -0 -0 -0 -0 -0 -0 -0 -0 -0
-0 -0 -0 -0 -0 -0 -0 -0 -0 -0 -0 -0 -0 -0 -0 -0 -0 -0 -0 -0 -0 -0 -0 -0 -0 -0 -0 -0 -0 -0 -0 -0 -0 -0 -0 -0 -0 -0 -0 -0 -0 -0 -0 -0 -0
-0 -0 -0 -0 -0 -0 -0 -0 -0 -0 -0 -0 -0 -2 -0 -0 -0 -0 -0 -0 -0 -0 -0 -0 -0 -0 -0 -0 -0 -0 -0 -0 -0 -0 -0 -0 -0 -0 -0 -0 -0 -0 -0 -0 -0
-0 -0 -0 -0 -0 -0 -0 -0 -0 -0 -0 -0 -0 -0 -0 -0 -0 -0 -0 -0 -0 -0 -0 -0 -0 -0 -0 -0 -0 -0 -0 -0 -0 -0 -0 -0 -0 -0 -0 -0 -0 -0 -0 -0 -0
-0 -0 -0 -0 -0 -0 -0 -0 -0 -0 -0 -0 -2 -5 -0 -0 -0 -0 -1 -10 -0 -0 -0 -0 -2 -3 -4 -1 -0 -0 -0 -0 -0 -0 -0 -0 -0 -0 -0 -0 -0 -0 -0 -0 -0
-0 -0 -0 -0 -0 -0 -0 -0 -0 -0 -0 -3 -0 -0 -0 -0 -3 -5 -9 -8 -8 -1 -0 -0 -0 -2 -3 -0 -0 -0 -0 -0 -0 -0 -0 -0 -0 -0 -0 -0 -0 -0 -0 -0 -0
-0 -0 -0 -0 -0 -0 -0 -3 -0 -1 -0 -0 -0 -0 -6 -4 -11 -10 -9 -3 -28 -10 -4 -4 -0 -0 -0 -1 -3 -0 -0 -0 -0 -0 -0 -0 -0 -0 -0 -0 -0 -0 -0 -0 -0
-0 -0 -0 -0 -0 -0 -0 -0 -1 -2 -2 -0 -48 -23 -55 -0 -0 -1 -0 -0 -6 -6 -15 -8 -7 -0 -0 -0 -0 -4 -3 -0 -0 -0 -0 -0 -0 -0 -0 -0 -0 -0 -0 -0 -0
-0 -0 -0 -0 -0 -0 -0 -0 -6 -0 -0 -17 -0 -7 -29 -0 -16 -10 -0 -0 -8 -6 -5 -5 -2 -6 -0 -0 -0 -0 -0 -0 -0 -0 -3 -5 -0 -1 -0 -0 -0 -0 -0 -0 -0
-0 -0 -0 -0 -0 -0 -0 -0 -9 -0 -0 -26 -2 -7 -5 -1 -4 -39 -0 -27 -0 -2 -13 -68 -12 -14 -11 -13 -0 -0 -0 -0 -0 -0 -0 -21 -0 -0 -0 -0 -0 -0 -0 -0 -0
-0 -0 -0 -0 -0 -0 -0 -0 -11 -5 -7 -17 -0 -0 -4 -3 -3 -6 -4 -8 -27 -2 -0 -0 -0 -21 -4 -14 -6 -0 -0 -7 -4 -8 -14 -6 -2 -0 -0 -0 -0 -0 -0 -0 -0
-0 -0 -0 -0 -0 -0 -0 -28 -5 -5 -2 -0 -0 -0 -6 -6 -5 -8 -14 -11 -15 -7 -0 -0 -0 -0 -2 -22 -48 -14 -3 -0 -10 -1 -29 -0 -1 -0 -0 -0 -0 -0 -0 -0 -0
-0 -0 -0 -0 -0 -0 -0 -24 -2 -0 -2 -1 -0 -4 -3 -5 -0 -2 -4 -0 -7 -10 -1 -0 -3 -33 -47 -67 -20 -41 -4 -5 -2 -14 -0 -0 -0 -0 -0 -0 -0 -0 -0 -0 -0
-0 -0 -0 -0 -0 -0 -6 -0 -2 -2 -1 -3 -0 -3 -2 -3 -10 -2 -0 -0 -0 -0 -32 -1 -3 -49 -28 -29 -0 -8 -20 -6 -6 -8 -0 -0 -0 -0 -0 -22 -17 -0 -0 -0 -0
-0 -0 -0 -0 -0 -0 -4 -0 -2 -4 -4 -6 -3 -2 -1 -2 -2 -2 -0 -6 -0 -1 -0 -7 -0 -25 -27 -0 -17 -11 -17 -9 -10 -33 -5 -0 -0 -0 -0 -9 -0 -66 -14 -0 -0
-0 -0 -0 -0 -0 -0 -1 -2 -3 -4 -5 -4 -2 -1 -0 -1 -1 -1 -2 -3 -2 -0 -1 -0 -1 -5 -0 -7 -43 -4 -59 -10 -19 -36 -5 -2 -0 -0 -0 -0 -36 -178 -212 -132 -108
-0 -0 -0 -0 -0 -0 -0 -0 -2 -5 -3 -4 -3 -2 -0 -0 -0 -1 -3 -2 -1 -1 -0 -0 -0 -0 -0 -0 -20 -3 -0 -50 -17 -5 -47 -19 -7 -116 -23 -39 -138 -343 -272 -166 -133
-0 -0 -0 -0 -0 -0 -0 -0 -5 -2 -4 -6 -1 -4 -1 -0 -2 -0 -1 -1 -1 -1 -0 -0 -0 -0 -1 -0 -49 -36 -16 -0 -11 -65 -60 -25 -20 -201 -268 -240 -352 -427 -238 -166 -143
-0 -0 -0 -0 -0 -1 -2 -0 -3 -5 -2 -1 -1 -4 -1 -0 -1 -0 -0 -1 -1 -0 -0 -0 -0 -0 -1 -4 -14 -40 -23 -23 -9 -0 -50 -75 -9 -134 -259 -150 -130 -278 -206 -164 -108
-0 -0 -0 -0 -0 -0 -10 -3 -0 -0 -1 -0 -1 -1 -0 -1 -0 -0 -0 -0 -0 -1 -0 -0 -0 -0 -0 -0 -29 -47 -28 -64 -5 -0 -45 -10 -10 -140 -0 -0 -0 -230 -159 -140 -33
-0 -0 -1 -1 -0 -5 -6 -3 -1 -0 -1 -1 -0 -0 -0 -0 -0 -0 -0 -0 -0 -0 -0 -0 -0 -0 -0 -0 -5 -39 -0 -35 -27 -6 -1 -16 -19 -0 -0 -0 -0 -280 -0 -0 -0
-1 -1 -0 -0 -0 -3 -2 -2 -2 -1 -0 -1 -0 -0 -0 -1 -1 -0 -0 -0 -0 -0 -0 -0 -0 -0 -6 -16 -12 -1 -4 -112 -52 -1 -0 -0 -0 -0 -0 -0 -0 -0 -0 -0 -0
Wind_Speed
35 35 36 37 38 38 39 39 40 39 37 38 38 39 40 42 46 44 47 34 24 18 25 27 20 19 20 25 24 30 40 50 50 47 42 39 41 37 35 41 29 30 25 9 6
38 38 34 34 32 34 34 34 35 37 38 37 38 39 40 41 45 50 30 37 34 27 24 27 27 21 25 26 27 27 36 39 45 45 46 43 40 39 32 33 32 29 29 18 9
38 36 34 34 34 35 35 35 35 36 36 36 36 37 38 39 44 28 22 23 24 19 24 25 28 30 31 30 28 29 38 37 45 47 43 45 42 41 37 35 34 34 32 24 13
35 36 36 36 34 35 35 36 36 36 36 37 37 36 35 33 38 21 22 27 20 15 21 26 31 37 39 37 32 38 35 43 49 42 39 44 40 40 33 32 34 29 31 32 19
39 39 38 36 36 38 38 39 39 39 39 39 38 36 36 37 36 35 45 39 26 23 26 27 33 35 45 40 36 44 44 45 46 47 48 43 44 42 39 27 25 26 25 33 20
40 39 40 40 41 40 41 42 42 40 40 40 37 34 36 52 36 36 34 35 31 28 31 31 32 34 42 46 47 42 43 48 46 41 41 42 43 32 43 35 30 32 29 27 27
39 41 43 43 43 43 43 43 43 43 43 40 36 32 39 45 38 41 41 41 32 34 37 33 37 38 38 47 43 48 50 47 49 46 45 39 48 48 31 33 36 32 31 28 22
42 43 45 45 45 45 45 45 45 42 39 37 33 29 44 39 34 36 38 43 42 37 42 41 37 43 45 40 46 46 50 58 49 43 42 35 61 41 36 32 34 31 32 28 28
42 44 45 46 46 46 47 44 43 39 35 30 31 27 43 33 31 33 31 37 37 38 37 35 39 45 42 47 47 50 53 55 52 40 37 37 62 38 32 29 35 31 29 29 28
44 45 46 47 47 46 45 43 38 39 26 23 24 28 30 31 35 40 29 24 31 33 38 35 39 47 48 47 60 52 53 48 51 45 41 46 50 44 35 36 25 28 23 28 27
44 45 47 48 46 42 41 39 48 41 30 37 37 31 25 10 13 32 15 31 28 28 43 44 50 54 54 51 50 49 49 51 47 34 40 48 46 40 37 32 28 25 23 21 26
45 46 47 46 43 38 34 35 43 33 38 22 14 12 20 27 27 14 7 19 22 32 31 41 49 52 49 49 51 54 54 54 45 37 44 43 47 38 33 38 28 26 21 22 20
44 44 45 44 39 33 29 38 30 31 13 6 2 23 22 28 2 12 4 3 23 34 37 44 42 44 48 51 54 55 55 54 50 38 41 43 44 40 36 34 35 29 28 21 19
44 44 42 43 32 32 34 32 25 12 14 16 10 9 14 12 24 11 16 6 15 33 29 38 41 45 45 49 51 57 48 50 48 46 44 37 47 36 35 38 39 33 23 24 18
44 42 39 33 29 33 35 13 27 23 22 21 20 17 30 19 17 23 5 9 10 23 30 29 29 42 48 47 46 53 44 44 49 49 44 35 41 42 32 43 37 29 23 23 22
43 38 35 30 23 29 26 26 24 20 22 11 20 21 31 37 24 23 8 4 18 22 22 34 40 28 38 37 41 44 46 41 43 46 53 44 40 43 41 38 34 32 24 21 19
41 30 28 23 32 26 20 20 19 33 15 20 25 25 9 29 18 23 14 9 20 22 15 23 30 37 34 33 36 39 44 47 47 53 52 47 46 40 33 41 32 28 28 22 19
38 22 21 24 24 20 9 8 23 5 12 20 20 18 26 32 25 23 17 7 20 20 24 18 20 22 32 44 25 42 46 51 47 48 50 45 52 43 34 26 25 24 23 22 21
35 25 22 29 20 17 19 26 12 10 18 20 21 21 16 24 19 22 14 11 14 16 20 21 21 24 32 39 47 30 47 41 43 36 45 46 45 36 29 16 8 18 21 20 20
31 24 26 23 12 10 18 18 10 6 9 12 13 9 23 24 20 20 13 11 15 17 19 21 24 17 27 28 45 49 35 41 43 43 47 44 44 41 37 20 14 9 15 18 17
26 25 28 19 12 22 25 13 9 7 13 12 12 18 18 19 19 18 10 18 21 23 24 25 22 20 19 25 33 42 40 41 40 28 38 42 44 36 31 22 15 10 8 8 10
27 30 29 23 27 26 24 18 11 19 27 19 13 14 20 27 12 8 7 8 18 21 21 20 25 26 25 27 32 47 31 47 44 39 34 33 28 24 29 20 17 12 7 8 9
29 25 27 23 30 28 20 18 25 13 20 15 18 21 28 11 9 4 8 14 15 19 11 19 19 21 20 23 28 32 35 54 43 35 35 34 24 11 13 14 14 15 13 10 9
27 31 27 23 25 22 20 16 16 20 12 11 15 30 23 18 7 10 14 10 23 20 11 14 18 24 24 19 23 36 40 50 47 39 36 29 23 16 15 16 13 11 12 13 11
30 29 29 27 25 14 10 24 18 19 17 8 23 29 24 7 13 5 14 13 10 7 12 15 17 25 28 30 28 37 39 46 49 41 27 26 20 18 15 13 13 11 12 13 13
32 30 26 22 21 16 26 25 16 20 14 27 28 29 23 13 5 15 14 10 6 9 9 10 13 18 23 26 28 31 43 49 44 23 24 19 14 15 13 12 11 10 13 15 14
30 25 24 23 25 20 29 23 26 19 14 18 30 27 23 18 21 17 14 13 11 10 8 10 12 15 22 27 29 23 45 42 44 10 15 18 14 17 15 13 12 13 15 17 15
Wind_Direction
332 326 325 324 321 319 316 317 317 322 327 324 323 319 316 310 301 297 282 290 295 274 285 286 283 277 262 262 261 258 257 254 253 254 259 262 261 259 260 256 263 259 267 293 275
348 351 359 357 356 350 347 343 338 330 325 325 323 320 318 316 307 293 277 291 285 284 278 272 273 269 258 259 257 249 255 252 256 258 257 259 261 259 265 259 260 256 259 267 257
357 360 360 356 353 349 345 342 339 334 330 327 324 321 318 317 311 310 328 321 302 276 269 271 270 267 261 257 251 248 221 262 256 257 260 259 260 261 261 255 257 258 257 255 258
4 359 356 353 351 348 344 340 336 332 329 326 323 321 318 317 302 318 319 318 316 286 277 269 265 261 259 255 253 255 255 258 252 259 261 259 264 261 257 259 261 259 257 253 252
358 355 354 353 349 345 341 337 333 328 325 322 320 318 315 301 291 294 294 294 297 283 271 267 264 261 256 257 257 253 257 257 257 256 258 264 261 257 259 259 257 262 257 253 251
357 356 352 349 345 342 338 334 330 327 324 320 317 314 305 294 308 301 294 289 285 279 270 264 267 263 262 256 253 258 258 256 256 258 259 259 260 263 254 262 261 256 265 254 256
358 354 350 347 343 340 336 332 328 324 321 319 316 309 298 293 303 299 293 287 280 272 270 268 264 262 260 259 259 256 256 256 252 253 256 262 256 254 260 259 260 256 257 255 259
356 353 349 346 343 340 336 332 327 324 323 321 319 308 300 307 304 300 291 279 279 276 269 266 265 261 258 264 256 255 252 248 249 251 254 254 242 256 258 258 257 257 254 253 258
355 352 349 346 343 340 337 333 329 325 323 324 322 308 308 319 304 302 295 283 274 274 273 265 259 257 255 252 254 247 248 246 249 252 250 248 230 256 261 253 256 254 253 255 257
355 352 349 346 344 342 341 338 334 330 331 330 327 321 318 319 307 308 306 292 279 269 262 257 257 252 247 242 242 242 244 249 247 247 249 249 252 254 258 260 244 252 247 255 255
355 352 350 347 346 346 347 348 345 344 342 323 319 312 271 287 257 315 282 296 287 267 254 253 249 243 241 243 247 249 249 247 251 253 248 249 251 254 251 258 254 251 239 246 258
356 353 352 349 349 349 350 354 354 352 344 335 263 233 298 312 292 263 207 281 274 270 259 254 244 245 247 247 247 246 247 247 250 250 250 249 250 251 251 251 257 251 248 245 244
357 355 354 353 354 358 0 0 3 2 11 259 233 8 14 356 244 219 165 109 226 268 261 253 251 246 245 245 243 243 242 243 245 251 249 250 250 245 247 253 253 257 257 249 238
358 357 357 360 8 7 4 7 20 294 61 51 66 79 44 51 314 232 357 36 196 260 260 260 253 246 243 243 242 241 240 242 243 245 246 240 245 243 244 252 252 249 246 249 242
358 358 2 5 9 11 6 14 13 30 33 323 311 1 309 21 294 340 72 46 158 189 256 264 261 251 245 244 240 241 242 240 242 243 248 240 242 245 245 248 246 241 239 244 242
360 1 6 16 13 10 15 23 23 45 28 272 312 316 321 335 308 12 84 242 223 201 201 224 230 253 253 250 247 239 239 242 238 240 241 241 238 243 245 244 248 242 232 236 232
1 3 9 16 12 15 24 35 48 26 303 309 315 317 354 323 325 326 272 197 212 190 180 214 213 215 240 250 245 238 228 229 234 231 235 237 241 244 248 250 246 242 231 221 232
2 5 24 22 22 26 26 54 56 321 300 307 314 312 30 325 308 302 291 266 224 188 221 190 183 175 194 232 238 234 227 225 228 228 229 235 236 240 247 278 237 237 223 218 222
7 21 28 23 35 37 49 55 76 303 302 310 313 309 14 316 308 307 292 276 281 314 257 231 191 248 205 227 231 231 232 226 232 238 233 233 238 241 248 272 262 227 213 211 217
12 22 29 30 39 43 56 56 47 17 324 337 321 318 309 312 308 308 276 254 300 294 290 250 254 309 247 245 224 232 232 220 228 233 229 230 231 234 236 237 239 251 194 212 210
21 22 29 33 38 44 38 44 34 4 324 345 323 297 294 298 299 295 219 281 310 296 295 281 252 259 248 199 191 224 230 223 226 235 231 228 233 234 232 218 212 215 213 220 191
23 21 26 32 36 33 34 32 22 13 16 19 30 297 290 300 289 282 209 204 281 292 271 267 262 240 219 180 216 210 224 224 221 224 237 238 231 260 228 193 199 206 201 193 171
20 18 28 35 26 27 30 22 20 353 312 27 293 297 307 287 291 260 231 252 258 275 215 260 238 228 228 201 203 227 216 210 218 227 230 232 238 260 170 177 205 195 200 190 178
20 18 21 31 28 26 22 20 350 26 10 344 290 0 305 298 272 251 262 232 282 266 189 183 205 209 212 184 191 175 215 210 214 223 230 241 238 220 199 192 190 190 191 190 183
22 22 23 17 21 17 325 18 323 321 22 12 299 310 302 299 292 145 277 278 266 215 133 210 223 232 225 237 208 190 202 205 207 213 236 239 227 210 201 188 183 175 164 170 176
16 17 17 10 16 17 337 310 315 318 322 306 301 302 297 286 259 280 277 265 187 195 227 207 166 222 220 181 202 153 187 201 207 218 224 228 200 195 192 171 165 167 169 165 164
17 17 17 14 16 23 321 302 307 322 31 298 302 299 295 290 285 265 252 241 206 211 198 159 172 169 139 146 187 206 181 186 199 221 250 238 205 179 175 172 165 148 152 149 152